Home > Time Zones > World Clock > Weather > Japan > Kyoto > Past weeks

Flag for Japan Weather past 2 weeks in Kyoto, Japan

Now
55 °F

Light rain. Mostly cloudy.


Feels Like: 55 °F
Forecast: 36 / 66 °F
Wind: 3 mph from Northeast

Location: Osaka International Airport

Current Time: Mar 29, 2015 at 10:09:56 AM

Latest Report: Mar 29, 2015 at 9:00 AM


Visibility: N/A

Pressure: 30.01 "Hg

Humidity: 82%

Dew point: 50 °F

Location of KyotoLocation

Historic Weather in Kyoto — Graph

°F

Kyoto temperature yesterday

Maximum temperature yesterday: 68 °F (at 2:00 PM)
Minimum temperature yesterday: 45 °F (at 5:00 AM)
Average temperature yesterday: 59 °F

Past Weeks' High & Low Weather Summary

 TemperatureHumidityPressure
High70 °F (Mar 18, 1:00 PM)100% (Mar 17, 5:00 AM)30.57 "Hg (Mar 17, 5:00 AM)
Low34 °F (Mar 26, 6:00 AM)20% (Mar 27, 3:00 PM)29.71 "Hg (Mar 19, 11:00 AM)
Average54 °F59%30.12 "Hg
* Reported Mar 14 9:00 AM — Mar 29 9:00 AM, Kyoto, Weather by CustomWeather, © 2015

Note: Actual official high and low records may vary slightly from our data, if they occured in-between our weather recording intervals... More about our weather records

Advertising

Kyoto weather history for previous 24 hours

 ConditionsComfort  
Time TempWeatherWind HumidityBarometerVisibility
9:00 AM
Sun, Mar 29
55 °FLight rain. Mostly cloudy.3 mph82%30.01 "HgN/A
8:00 AM55 °FLight rain. Broken clouds.5 mph77%30.01 "HgN/A
7:00 AM54 °FLight rain. Broken clouds.2 mph77%30.01 "HgN/A
6:00 AM52 °FPartly sunny.2 mph82%30.01 "HgN/A
5:00 AM55 °FPartly cloudy.3 mph77%30.01 "HgN/A
8:00 PM
Sat, Mar 28
59 °FPassing clouds.5 mph72%30.07 "HgN/A
7:00 PM61 °FPassing clouds.8 mph63%30.04 "HgN/A
6:00 PM61 °FPassing clouds.10 mph59%30.04 "HgN/A
5:00 PM63 °FPassing clouds.14 mph56%30.04 "HgN/A
4:00 PM66 °FPassing clouds.12 mph32%30.04 "HgN/A
3:00 PM68 °FPassing clouds.13 mph26%30.04 "HgN/A
2:00 PM68 °FPassing clouds.10 mph28%30.07 "HgN/A
1:00 PM66 °FPassing clouds.10 mph30%30.09 "HgN/A
12:00 PM64 °FPassing clouds.8 mph37%30.12 "HgN/A
11:00 AM63 °FSunny.5 mph39%30.15 "Hg10 mi
10:00 AM61 °FPassing clouds.5 mph42%30.18 "HgN/A
Weather by CustomWeather, © 2015

See weather overviewHow to use our weather pages